TimeEST,TemperatureF,Dew PointF,Humidity,Sea Level PressureIn,VisibilityMPH,Wind Direction,Wind SpeedMPH,Gust SpeedMPH,PrecipitationIn,Events,Conditions,WindDirDegrees,DateUTC
12:15 AM,59.0,55.4,88,29.94,10.0,SE,3.5,-,N/A,,Clear,140,2012-11-06 05:15:00
12:35 AM,59.0,55.4,88,29.94,10.0,Calm,Calm,-,N/A,,Clear,0,2012-11-06 05:35:00
12:55 AM,59.0,55.4,88,29.93,10.0,Calm,Calm,-,N/A,,Clear,0,2012-11-06 05:55:00
1:15 AM,57.2,55.4,94,29.93,10.0,Calm,Calm,-,N/A,,Clear,0,2012-11-06 06:15:00
1:35 AM,57.2,55.4,94,29.94,10.0,Calm,Calm,-,N/A,,Clear,0,2012-11-06 06:35:00
1:55 AM,57.2,55.4,94,29.93,10.0,Calm,Calm,-,N/A,,Clear,0,2012-11-06 06:55:00
2:15 AM,55.4,55.4,100,29.91,10.0,Calm,Calm,-,N/A,,Clear,0,2012-11-06 07:15:00
2:35 AM,57.2,55.4,94,29.91,10.0,Calm,Calm,-,N/A,,Clear,0,2012-11-06 07:35:00
2:55 AM,57.2,55.4,94,29.90,10.0,Calm,Calm,-,N/A,,Clear,0,2012-11-06 07:55:00
3:35 AM,55.4,55.4,100,29.91,10.0,Calm,Calm,-,N/A,,Scattered Clouds,0,2012-11-06 08:35:00
3:55 AM,57.2,55.4,94,29.91,10.0,Calm,Calm,-,N/A,,Mostly Cloudy,0,2012-11-06 08:55:00
4:15 AM,59.0,55.4,88,29.91,10.0,Calm,Calm,-,N/A,,Overcast,0,2012-11-06 09:15:00
4:35 AM,57.2,55.4,94,29.92,10.0,Calm,Calm,-,N/A,,Mostly Cloudy,0,2012-11-06 09:35:00
4:55 AM,57.2,55.4,94,29.92,10.0,Calm,Calm,-,N/A,,Scattered Clouds,0,2012-11-06 09:55:00
5:15 AM,57.2,55.4,94,29.92,10.0,Calm,Calm,-,N/A,,Scattered Clouds,0,2012-11-06 10:15:00
5:35 AM,55.4,55.4,100,29.91,7.0,Calm,Calm,-,N/A,,Mostly Cloudy,0,2012-11-06 10:35:00
5:50 AM,57.2,55.4,94,29.91,10.0,Calm,Calm,-,N/A,,Scattered Clouds,0,2012-11-06 10:50:00
7:50 AM,60.8,57.2,88,29.92,10.0,Calm,Calm,-,N/A,,Overcast,0,2012-11-06 12:50:00
8:50 AM,62.6,60.8,94,29.95,7.0,Calm,Calm,-,N/A,Rain,Light Rain,0,2012-11-06 13:50:00
9:50 AM,64.4,62.6,94,29.95,8.0,Calm,Calm,-,N/A,,Overcast,0,2012-11-06 14:50:00
10:50 AM,68.0,62.6,83,29.94,10.0,Calm,Calm,-,N/A,,Mostly Cloudy,0,2012-11-06 15:50:00
11:50 AM,73.4,60.8,65,29.90,12.0,SSW,4.6,-,N/A,,Mostly Cloudy,200,2012-11-06 16:50:00
12:51 PM,73.4,60.8,65,29.87,20.0,SW,6.9,-,N/A,,Mostly Cloudy,230,2012-11-06 17:51:00
1:58 PM,75.2,60.8,61,29.84,20.0,WSW,6.9,-,N/A,,Mostly Cloudy,250,2012-11-06 18:58:00
2:55 PM,77.0,60.8,57,29.83,20.0,West,11.5,-,N/A,,Mostly Cloudy,260,2012-11-06 19:55:00
3:55 PM,75.2,60.8,61,29.83,20.0,West,6.9,-,N/A,,Scattered Clouds,270,2012-11-06 20:55:00
4:50 PM,73.4,62.6,69,29.83,20.0,West,6.9,-,N/A,,Partly Cloudy,270,2012-11-06 21:50:00
5:50 PM,69.8,55.4,60,29.84,20.0,West,5.8,-,N/A,,Partly Cloudy,270,2012-11-06 22:50:00
6:50 PM,66.2,57.2,73,29.86,20.0,West,3.5,-,N/A,,Clear,280,2012-11-06 23:50:00
7:50 PM,64.4,57.2,77,29.88,20.0,WNW,4.6,-,N/A,,Clear,290,2012-11-07 00:50:00
8:50 PM,62.6,55.4,77,29.90,20.0,WNW,5.8,-,N/A,,Scattered Clouds,300,2012-11-07 01:50:00
9:50 PM,60.8,55.4,82,29.91,20.0,WNW,4.6,-,N/A,,Clear,290,2012-11-07 02:50:00
9:55 PM,60.8,53.6,77,29.91,10.0,WNW,4.6,-,N/A,,Clear,290,2012-11-07 02:55:00
10:15 PM,59.0,53.6,82,29.90,10.0,NW,5.8,-,N/A,,Clear,310,2012-11-07 03:15:00
10:35 PM,59.0,53.6,82,29.90,10.0,West,4.6,-,N/A,,Clear,280,2012-11-07 03:35:00
10:55 PM,59.0,53.6,82,29.90,10.0,West,4.6,-,N/A,,Clear,280,2012-11-07 03:55:00
11:15 PM,57.2,53.6,88,29.90,10.0,West,3.5,-,N/A,,Clear,270,2012-11-07 04:15:00
11:35 PM,59.0,53.6,82,29.90,10.0,Calm,Calm,-,N/A,,Clear,0,2012-11-07 04:35:00
11:55 PM,57.2,53.6,88,29.89,10.0,Calm,Calm,-,N/A,,Clear,0,2012-11-07 04:55:00